Gwinn, MI

3:57 PM EDT on July 26, 2017 (GMT -0400)
Sawyer International

Weather History for KSAW - November, 2012

Change the Weather History Date:

Sunday, November 25, 2012

  Actual Average (KESC) Record (KESC)
Temperature  
Mean Temperature 22 °F -  
Max Temperature 28 °F 35 °F 51 °F (2001)
Min Temperature 17 °F 22 °F -1 °F (1950)
Degree Days  
Heating Degree Days 42    
Moisture  
Dew Point 18 °F    
Average Humidity 83    
Maximum Humidity 93    
Minimum Humidity 69    
Precipitation  
Precipitation 0.00 in - - ()
Sea Level Pressure  
Sea Level Pressure 29.79 in    
Wind  
Wind Speed 7 mph (SW)    
Max Wind Speed 13 mph    
Max Gust Speed 22 mph    
Visibility 7 miles    
Events Snow    
Averages and records for this station are not official NWS values.
T = Trace of Precipitation, MM = Missing Value Source: NWS Daily Summary

Daily Weather History Graph

Daily Weather History Graph

Search for Another Location

Airport or City:

Trip Planner

Search our weather history database for the weather conditions in past years. The results will help you decide how hot, cold, wet, or windy it might be!

Date:

Astronomy

Nov. 25, 2012 Rise Set
Actual Time 8:05 AM EST 5:07 PM EST
Civil Twilight 7:31 AM EST 5:41 PM EST
Nautical Twilight 6:54 AM EST 6:18 PM EST
Astronomical Twilight 6:18 AM EST 6:54 PM EST
Moon 3:30 PM EST (11/25) 5:12 AM EST (11/25)
Length of Visible Light 10h 09m
Length of Day
9h 02m
Waxing Gibbous, 93% of the Moon is Illuminated
Nov 25
Waxing Gibbous
Nov 28
Full
Dec 6
Last Quarter
Dec 13
New
Dec 20
First Quarter

Hourly Weather History & Observations

Time (EST) Temp. Windchill Dew Point Humidity Pressure Visibility Wind Dir Wind Speed Gust Speed Precip Events Conditions
12:15 AM 22.1 °F 13.7 °F 15.4 °F 76% 29.84 in 10.0 mi South 6.9 mph - N/A   Overcast
12:36 AM 21.9 °F 12.5 °F 16.5 °F 80% 29.83 in 4.0 mi SSW 8.1 mph - N/A Snow Light Snow
12:56 AM 21.7 °F 13.2 °F 17.4 °F 83% 29.83 in 2.0 mi SSW 6.9 mph - N/A Snow Light Snow
1:16 AM 21.2 °F 11.7 °F 18.0 °F 87% 29.82 in 2.0 mi SSW 8.1 mph - N/A Snow Light Snow
1:36 AM 21.6 °F 12.1 °F 18.3 °F 87% 29.81 in 1.8 mi SSW 8.1 mph - N/A Snow Light Snow
1:55 AM 21.6 °F 14.0 °F 18.3 °F 87% 29.79 in 2.0 mi SSW 5.8 mph - N/A Snow Light Snow
2:16 AM 21.6 °F 15.3 °F 18.5 °F 88% 29.79 in 3.0 mi South 4.6 mph - N/A Snow Light Snow
2:36 AM 21.9 °F 15.7 °F 18.7 °F 87% 29.78 in 4.0 mi South 4.6 mph - N/A Snow Light Snow
2:56 AM 21.9 °F 15.7 °F 18.7 °F 87% 29.77 in 2.5 mi South 4.6 mph - N/A Snow Light Snow
3:16 AM 21.9 °F 15.7 °F 18.9 °F 88% 29.76 in 2.5 mi South 4.6 mph - N/A Snow Light Snow
3:35 AM 21.9 °F 13.4 °F 18.9 °F 88% 29.76 in 2.0 mi SSW 6.9 mph - N/A Snow Light Snow
3:56 AM 21.9 °F 14.5 °F 18.9 °F 88% 29.75 in 2.5 mi South 5.8 mph - N/A Snow Light Snow
4:16 AM 21.9 °F 13.4 °F 18.7 °F 87% 29.74 in 5.0 mi South 6.9 mph - N/A Snow Light Snow
4:35 AM 21.9 °F 13.4 °F 18.5 °F 87% 29.73 in 5.0 mi South 6.9 mph - N/A Snow Light Snow
4:56 AM 21.2 °F 12.6 °F 18.3 °F 89% 29.72 in 5.0 mi SSW 6.9 mph - N/A Snow Light Snow
5:16 AM 19.9 °F 12.1 °F 17.1 °F 89% 29.72 in 7.0 mi SSW 5.8 mph - N/A Snow Light Snow
5:35 AM 19.4 °F 11.5 °F 16.7 °F 89% 29.72 in 10.0 mi SSW 5.8 mph - N/A   Mostly Cloudy
5:56 AM 20.1 °F 12.3 °F 17.4 °F 89% 29.72 in 10.0 mi SSW 5.8 mph - N/A   Overcast
6:50 AM 17.6 °F 12.3 °F 15.8 °F 93% 29.71 in 10.0 mi SW 3.5 mph - N/A   Scattered Clouds
7:50 AM 19.4 °F 12.8 °F 17.6 °F 93% 29.71 in 10.0 mi SW 4.6 mph - N/A   Mostly Cloudy
8:45 AM 21.2 °F 13.6 °F 17.6 °F 86% 29.71 in 10.0 mi West 5.8 mph - N/A   Overcast
9:50 AM 23.0 °F 18.4 °F 19.4 °F 86% 29.71 in 10.0 mi WSW 3.5 mph - N/A   Overcast
10:50 AM 24.8 °F 16.1 °F 21.2 °F 86% 29.72 in 10.0 mi WSW 8.1 mph - N/A   Overcast
11:50 AM 26.6 °F 16.8 °F 21.2 °F 80% 29.72 in 10.0 mi West 10.4 mph - N/A   Overcast
12:50 PM 26.6 °F 17.5 °F 23.0 °F 86% 29.72 in 10.0 mi West 9.2 mph - N/A   Overcast
1:50 PM 28.4 °F 19.7 °F 21.2 °F 74% 29.73 in 10.0 mi WNW 9.2 mph - N/A   Overcast
2:50 PM 28.4 °F 19.7 °F 19.4 °F 69% 29.74 in 10.0 mi WNW 9.2 mph - N/A   Overcast
3:55 PM 28.4 °F 19.1 °F 21.2 °F 74% 29.75 in 7.0 mi West 10.4 mph - N/A Snow Light Snow
4:50 PM 26.6 °F 16.2 °F 21.2 °F 80% 29.78 in 3.0 mi West 11.5 mph - N/A Snow Light Snow
5:50 PM 24.8 °F 13.4 °F 21.2 °F 86% 29.80 in 2.0 mi South 12.7 mph 21.9 mph N/A Snow Light Snow
6:50 PM 23.0 °F 11.7 °F 15.8 °F 74% 29.82 in 10.0 mi WNW 11.5 mph 21.9 mph N/A   Scattered Clouds
7:50 PM 23.0 °F 13.9 °F 15.8 °F 74% 29.86 in 10.0 mi NW 8.1 mph - N/A   Overcast
8:48 PM 23.0 °F 15.8 °F 15.8 °F 74% 29.87 in 10.0 mi WNW 5.8 mph - N/A   Overcast
9:50 PM 23.0 °F 13.1 °F 15.8 °F 74% 29.90 in 10.0 mi NW 9.2 mph - N/A   Overcast
10:16 PM 22.1 °F 13.7 °F 15.4 °F 76% 29.90 in 10.0 mi NW 6.9 mph - N/A   Overcast
10:36 PM 21.7 °F 15.5 °F 14.9 °F 75% 29.90 in 10.0 mi NW 4.6 mph - N/A   Overcast
10:55 PM 21.6 °F 14.0 °F 14.5 °F 74% 29.91 in 10.0 mi WNW 5.8 mph - N/A   Overcast
11:16 PM 21.2 °F - 14.0 °F 74% 29.91 in 10.0 mi Calm Calm - N/A   Overcast
11:36 PM 20.3 °F 13.8 °F 14.0 °F 77% 29.92 in 10.0 mi West 4.6 mph - N/A   Overcast
11:55 PM 19.6 °F 11.7 °F 14.0 °F 79% 29.94 in 10.0 mi West 5.8 mph - N/A   Overcast